Вернуться в каталог

STARLINK-5168

АктивенСвязьVLEO
NORAD 54071·PAYLOAD·🇺🇸 United States

Запущен Oct 20, 2022 с Cape Canaveral Space Force Station

Loading…

Ближайшие Пролёты (ближайшие 24 часа)

TLE

СвежийSource: CelesTrak SupGP

Эпоха: Sep 14, 2026, 22:09 UTC

1 54071C 22136W   26257.92340278 -.00023497  00000+0 -69422-3 0  2577
2 54071  53.1595 203.4760 0000905  99.2399 190.3361 15.34403639    16

Отслеживайте STARLINK-5168 в реальном времени с AllMySat

Download on the App Store